COSMOS 2251 DEB

Satellite information

Favourite Embed

Satellite Type and Status

DEBRISIN ORBIT

Key statistics

Satellite COSMOS 2251 DEB at a glance.

Uptime

11818

Days in orbit

Revolutions

≈ 14.4

Per day

Orbit

LEO

Low Earth Orbit

Inclination

73.8

Latest

Satellite identification and parameters

Extended collection of information and parameters for COSMOS 2251 DEB.

Object identification

Identified? True

Debris? True

Object name: COSMOS 2251 DEB

International designator: 1993-036BLM

Object number (NORAD): 37484

Object ID (CCSDS): 37484

Country: COMMONWEALTH OF INDEPENDENT STATES (CIS)

Current information (Y/N): Y

RCS size: SMALL

Orbital parameters

Period: 99.907 minutes

Inclination: 73.8232 deg

SMA: 7132.19 km

Apoapsis: 782.594 km

Periapsis: 725.516 km

RAAN: 310.5485 deg

Eccentricy: 0.0040014

Argument of periapsis: 352.1515 deg

Mean anomaly: 18.6972 deg

Mean motion: 14.4134648 rev/day

Mean motion (dot): 0.00004884 rev/day2

B* drag term: 0.0015018776 1/REarth

Two-line elements (TLE)

Creation date: Oct. 19, 2025, 10:30 a.m.

Reference frame: TEME

Reference center: EARTH

Epoch: Oct. 19, 2025, 7:53 a.m. UTC

TLE line 0: 0 COSMOS 2251 DEB

TLE line 1: 1 37484U 93036BLM 25292.32877766 .00004884 00000-0 15019-2 0 9995

TLE line 2: 2 37484 73.8232 310.5485 0040014 352.1515 18.6972 14.41346480645957

Live tracking on map

Real-time ground track for satellite COSMOS 2251 DEB.

In-orbit conjunctions

A list of the most updated potential collisions computed for object COSMOS 2251 DEB.

Target Orbit TCA Probability of collision Miss distance Type
DMSP 5D-3 F16 DEB SSO 2025-08-16 17:28:37 0.0001967402 114.0 (m) DEBRIS
FENGYUN 1C DEB SSO 2025-01-02 22:19:17 0.0001030922 196.0 (m) DEBRIS

Associated space launch

Military communications satellite. Destroyed in a collision with Iridium 33.

COSMOS 2251 DEB was lifted into orbit during the mission ‘Kosmos-3M | Strela-2M 51’, on board a Kosmos-3M space rocket.

The launch took place on June 16, 1993, 4:17 a.m. from 132/1 (132L).

For more information about the launch, click the button.

Launch to space Kosmos-3M | Strela-2M 51
Kosmos-3M | Strela-2M 51

Agency: N/A

Status: Launch Successful

Launch date: June 16, 1993, 4:17 a.m. UTC

Rocket: Kosmos-3M

Launch pad: 132/1 (132L)

Location: Plesetsk Cosmodrome, Russian Federation

...

Latest news about this satellite

There are no fresh news available about this satellite. Check back as we update our databases every day.


Newsletter sign-up

Weekly statistics, charts and insights to help you stay on top of the space industry.